Home   Weather   Metairie   Past weeks

Flag for USA Past Weather in Metairie, Louisiana, USA — Yesterday and Last 2 Weeks

Now
72 °F

Mostly cloudy.


Feels Like: 68 °F
Forecast: 75 / 82 °F
Wind: 5 mph from Southeast

Location: New Orleans International Airport

Current Time: May 29, 2017 at 10:44:31 pm

Latest Report: May 29, 2017 at 9:53 pm


Visibility: 10 mi

Pressure: 30.04 "Hg

Humidity: 93%

Dew Point: 70 °F

Location of MetairieLocation

Past Weather in Metairie — Graph

°F

Metairie Temperature Yesterday

Maximum temperature yesterday: 89 °F (at 12:53 pm)
Minimum temperature yesterday: 76 °F (at 5:53 am)
Average temperature yesterday: 81 °F

High & Low Weather Summary for the Past Weeks

 TemperatureHumidityPressure
High89 °F (May 28, 12:53 pm)97% (May 15, 5:53 am)30.13 "Hg (May 15, 5:53 am)
Low58 °F (May 25, 5:53 am)39% (May 24, 4:53 pm)29.67 "Hg (May 24, 5:53 am)
Average77 °F78%29.95 "Hg
* Reported May 14 9:53 pm — May 29 9:08 pm, Metairie. Weather by CustomWeather, © 2017

Note: Actual official high and low records may vary slightly from our data, if they occured in-between our weather recording intervals... More about our weather records

Advertising

Metairie Weather History for the Previous 24 Hours

Scroll right to see more
 ConditionsComfort  
Time TempWeatherWind HumidityBarometerVisibility
9:08 pm
Mon, May 29
72 °FLight rain. Passing clouds.3 mph93%30.03 "Hg10 mi
8:53 pm72 °FThundershowers. Partly cloudy.No wind93%30.03 "Hg10 mi
8:38 pm71 °FThundershowers. Fog.No wind93%30.04 "Hg5 mi
7:53 pm71 °FThunderstorms. Fog.7 mph93%30.09 "Hg3 mi
6:53 pm80 °FThunderstorms. Mostly cloudy.6 mph79%30.03 "Hg10 mi
5:53 pm82 °FCloudy.6 mph70%30.02 "Hg10 mi
4:53 pm82 °FMore clouds than sun.7 mph70%30.02 "Hg10 mi
3:53 pm84 °FMore clouds than sun.6 mph63%30.01 "Hg10 mi
2:53 pm85 °FMore clouds than sun.9 mph61%30.01 "Hg10 mi
1:53 pm84 °FOvercast.9 mph61%30.03 "Hg10 mi
12:53 pm84 °FOvercast.8 mph59%30.03 "Hg10 mi
11:53 am81 °FOvercast.3 mph62%30.04 "Hg10 mi
10:53 am75 °FOvercast.9 mph82%30.03 "Hg10 mi
9:53 am71 °FOvercast.12 mph93%30.04 "Hg10 mi
8:53 am70 °FLight rain. More clouds than sun.6 mph93%30.03 "Hg10 mi
7:53 am69 °FLight rain. Fog.14 mph96%30.09 "Hg5 mi
7:33 am68 °FRain. Fog.13 mph96%30.09 "Hg4 mi
7:04 am68 °FThunderstorms. Fog.6 mph96%30.07 "Hg3 mi
6:44 am68 °FRain. Fog.7 mph96%30.07 "Hg3 mi
6:17 am69 °FThunderstorms. Fog.9 mph93%30.08 "Hg4 mi
5:53 am71 °FThunderstorms. Mostly cloudy.13 mph81%30.02 "Hg6 mi
5:39 am74 °FThunderstorms. Partly cloudy.15 mph69%29.99 "Hg10 mi
5:22 am74 °FThundershowers. Partly cloudy.15 mph69%29.98 "Hg10 mi
4:53 am75 °FPassing clouds.9 mph66%29.99 "Hg10 mi
3:53 am75 °FPassing clouds.8 mph66%29.98 "Hg10 mi
2:53 am75 °FPassing clouds.8 mph69%30.02 "Hg10 mi
1:53 am76 °FPartly cloudy.14 mph67%30.02 "Hg10 mi
12:53 am79 °FPassing clouds.No wind84%30.03 "Hg8 mi
11:53 pm
Sun, May 28
77 °FPassing clouds.5 mph94%30.00 "Hg8 mi
10:53 pm79 °FPassing clouds.5 mph88%29.99 "Hg10 mi
Weather by CustomWeather, © 2017

See weather overviewHow to use our weather pages